Regional Weather Roundup
Issued by NWS

Home | Current Version | Previous Version | Text Only | Print | Product List | Glossary Off
Versions: 1 2 3 4 5 6 7 8 9 10 11 12 13 14 15 16 17 18 19 20 21 22 23 24 25 26 27 28 29 30 31 32 33 34 35 36 37 38 39 40 41 42 43 44 45 46 47 48 49 50

000
ASUS45 KBOU 201107
RWRCO

WEATHER ROUNDUP FOR COLORADO
NATIONAL WEATHER SERVICE DENVER/BOULDER CO
500 AM MDT WED AUG 20 2014

NOTE: "FAIR" INDICATES FEW OR NO CLOUDS BELOW 12000 FEET WITH NO
SIGNIFICANT WEATHER AND/OR OBSTRUCTIONS TO VISIBILITY.

COZ001>005-013-030-031-201200-
...NORTHWEST COLORADO...

CITY           SKY/WX    TMP DP  RH WIND       PRES   REMARKS
CRAIG          CLOUDY    56  54  93 CALM      30.05R
HAYDEN         CLOUDY    55  50  82 S5        30.06R
MEEKER         CLOUDY    57  53  86 W3        30.06R
MOUNT WERNER   NOT AVBL
STEAMBOAT SPGS CLOUDY    54  52  95 CALM      30.08R
WALDEN         CLOUDY    50  46  87 SE8       30.12F
$$

COZ006>008-011-201200-
...WEST CENTRAL VALLEYS...

CITY           SKY/WX    TMP DP  RH WIND       PRES   REMARKS
GRAND JUNCTION CLOUDY    61  60  97 CALM      29.99S
MONTROSE       CLOUDY    62  58  86 N3        30.07R
EAGLE          CLOUDY    57  55  94 NE3       30.10S
RIFLE          CLOUDY    60  58  92 CALM      30.03R
DELTA          RAIN      64  61  88 CALM      30.03R
NUCLA          CLOUDY    63  54  72 CALM      30.11R
$$

COZ017>023-064>068-201200-
...SOUTHWEST COLORADO...

CITY           SKY/WX    TMP DP  RH WIND       PRES   REMARKS
DURANGO        CLOUDY    59  53  80 NE3       30.12S
CORTEZ         CLEAR     58  57  97 CALM      30.10R
PAGOSA SPRINGS CLOUDY    54  53  97 CALM      30.19S
TELLURIDE      CLOUDY    54  52  94 CALM      30.24R FOG
WOLF CREEK PAS NOT AVBL
$$

COZ009-010-012-014-032>034-037-058>063-201200-
...CENTRAL COLORADO...

CITY           SKY/WX    TMP DP  RH WIND       PRES   REMARKS
ASPEN          CLOUDY    53  52  96 NW3       30.14S
BUENA VISTA    CLOUDY    53  48  84 CALM      30.13S
COPPER MTN     CLOUDY    46  37  71 SW7       30.38S
BERTHOUD PASS  FAIR      37  36  93 NW12G17   30.41R FOG
COTTONWOOD PAS MOCLDY    55  43  62 CALM      30.25S
GUNNISON       CLOUDY    55  46  71 N6        30.17R
KREMMLING      LGT RAIN  54  50  87 CALM      30.14R
LEADVILLE      CLOUDY    47  44  90 E5        30.23S
MONARCH PASS   CLOUDY    43  39  87 SW26      30.48S
SALIDA         MOCLDY    63  45  52 SW12      30.17S
SUNLIGHT       CLOUDY    46  46 100 CALM      30.32R FOG
WILKERSON PASS PTCLDY    45  37  76 SW10      30.33F
$$

COZ069>075-201200-
...SAN LUIS VALLEY/SANGRE DE CRISTO MOUNTAINS...

CITY           SKY/WX    TMP DP  RH WIND       PRES   REMARKS
ALAMOSA        CLOUDY    58  46  64 S7        30.11S
LA VETA PASS   MOCLDY    52  41  66 S10G21    30.26F
SAGUACHE       CLOUDY    57  46  67 CALM      30.15R
$$

COZ035-036-038>040-201200-
...NORTHERN COLORADO FRONT RANGE...

CITY           SKY/WX    TMP DP  RH WIND       PRES   REMARKS
DENVER INTL AP CLOUDY    64  55  72 W10       29.90S
DMNS CITY PARK   N/A     63  53  69 S2        29.91R
AURORA         MOCLDY    62  53  73 NW2       29.93S
FRONT RANGE AP CLOUDY    64  55  72 W6        29.92R
ERIE MUNI ARPT MOCLDY    60  54  80 CALM      29.90R
BOULDER MUN AP MOCLDY    63  52  67 CALM      29.90S
CENTENNIAL     CLOUDY    62  50  64 SW7       29.93S
BROOMFIELD     MOCLDY    64  46  52 NW8       29.92S
FORT COLLINS   MOCLDY    64  54  68 N6        29.90F
LONGMONT       MOCLDY    64  54  69 CALM      29.91R
$$

COZ041-046-047-076>085-087-088-201200-
...PIKES PEAK/PALMER DIVIDE AND SOUTHERN FOOTHILLS...

CITY           SKY/WX    TMP DP  RH WIND       PRES   REMARKS
COLO. SPRINGS  MOCLDY    62  50  64 N7        29.97S
A. F. ACADEMY  MOCLDY    60  49  67 N9        29.98F
ELLICOTT       MOCLDY    61  49  64 S3        29.96R
FALCON         MOCLDY    59  49  68 W7        30.02S
FORT CARSON    CLOUDY    60  51  69 N6        29.94S
LIMON          CLOUDY    62  50  64 E3        29.91S
MONUMENT HILL  CLOUDY    57  46  67 W8        30.01S
TRINIDAD       MOCLDY    65  47  52 VRB5      29.96S
$$

COZ042>045-048>051-090-091-201200-
...NORTHEAST COLORADO...

CITY           SKY/WX    TMP DP  RH WIND       PRES   REMARKS
GREELEY ARPT   CLOUDY    63  52  67 NW9       29.88F
AKRON          CLOUDY    65  57  75 W8        29.86S
BURLINGTON     MOCLDY    72  57  59 S14G22    29.83F
WRAY             N/A     65  62  87 CALM      29.80S
STERLING       CLOUDY    64  63  94 CALM      29.81F
HOLYOKE        NOT AVBL
FORT MORGAN    CLOUDY    64  56  75 NW6       29.84F
$$

COZ086-089-092>099-201200-
...SOUTHEAST COLORADO...

CITY           SKY/WX    TMP DP  RH WIND       PRES   REMARKS
PUEBLO         MOCLDY    63  51  65 S3        29.87S
LA JUNTA       MOCLDY    71  52  50 SW10      29.85R
LAMAR          PTCLDY    73  58  59 SW9       29.80R
SPRINGFIELD      N/A     68  59  73 SW10      29.89S
$$


USA.gov is the U.S. government's official web portal to all federal, state and local government web resources and services.